User: anonymous   Login
Location: Churchill
(58.7670°N, 94.1670°W)
Time: 00:49:05
(UTC-06:00)
Language:

Cosmos 1206 Rocket - Orbit

View from above orbital plane
View from above orbital plane
View from above satellite
View from above satellite

Ground track
Ground track

The orbit data is extracted from the following two-line orbital elements,

1 11933U 80069B   14142.00220786  .13526183 -93797-6  14751-3 0  4196
2 11933 081.1638 015.6664 0010317 233.6206 126.8454 16.50143735859229
Epoch (UTC): 22 May 2014 00:03:10
Eccentricity: 0.0010317
inclination: 81.1638°
perigee height: 132 km
apogee height: 145 km
right ascension of ascending node: 15.6664°
argument of perigee: 233.6206°
revolutions per day: 16.50143735
mean anomaly at epoch: 126.8454°
orbit number at epoch: 85922

The dashed part of the orbit path shows where the satellite is in the earth's shadow,  

DLR